sat.trackr.live / text

‹ back to catalog

STARLINK-5708

NORAD 55470 · 2023-015X

PAYLOAD ACTIVE UNKNOWN

§ Identity

Operator
Country
US
Launch date
2023-02-02
Launch site
AFETR
Launch vehicle
Mass (kg)
RCS (m²)

Purposes: comms

External: N2YO · Heavens-Above · Gunter

§ Orbital elements

Epoch: 2026-09-20T10:14:16.935360Z

Period
94.27 min
Inclination
43.0027°
Eccentricity
0.0001064
Mean motion
15.27572944 rev/d
Perigee alt
482.3 km
Apogee alt
483.8 km
Semi-major
6,861.2 km
B*
-1.1983e-5
RAAN
309.0252°
Arg perigee
270.2456°
Mean anomaly
89.8274°
Rev number
20,050

§ Raw data

STARLINK-57081 55470U 23015X   26263.42658490 -.00000592  00000+0 -11983-4 0  99922 55470  43.0027 309.0252 0001064 270.2456  89.8274 15.27572944200508

JSON: /api/v1/satellites/55470 · /tle

For live sub-satellite position, see the globe view (requires WebGL).

§ Visibility from observer

Set your observer location to see the next 7 days of passes ≥ 10°. The values pass through the URL so the page stays shareable.

No JS? Fill the form by hand. The geolocation button needs JavaScript.